[[{"header":{"parameterUnit":"m.s-1","parameterCategory":1,"la1":30.2991,"la2":30.254,"lo1":-89.0895,"lo2":-89.0444,"dy":0.0017,"dx":0.0017,"nx":28,"ny":28,"refTime":"2024-03-15T09:00:00:Z","depth":0,"parameterNumber":2,"parameterNumberName":"U-component_of_WINDS"},"data":[0,0,0,0,0,0,0,0,0,0,0,0,0,0,0,0,0,0,0,0,0,0,0,0,0,0,0,0,0,0,0,0,0,0,0,0,0,0,0,0,0,0,0,0,0,0,0,0,0,0,0,0,0,0,0,0,0,0,0.0238,0.0239,0,0.0373,0.0374,0.0376,0.045,0.045,0.0451,0.0451,0.059,0.0594,0.0597,0,0,0,0,0,0,0,0,0,0,0,0,0,0.0044,0.0047,0.0237,0.0239,0.0241,0.0373,0.0374,0.0376,0.045,0.045,0.0451,0.0451,0.0589,0.0593,0.0598,0,0,0,0,0,0,0,0,0,0,0,0,0,0.0149,0.0048,0.0237,0.0294,0.03,0.0372,0.0374,0.0377,0.045,0.045,0.0451,0.0451,0.0588,0.0593,0.0598,0.0625,0,0,0.0614,0.0617,0,0,0,0,0,0,0,0,0.0143,0.0156,0.0284,0.029,0.0297,0.0395,0.0358,0.046,0.045,0.0393,0.0451,0.0451,0.0525,0.0536,0.056,0.0632,0.0638,0.0615,0.0618,0.062,0.0622,0,0,0,0,0,0,0,0.0135,0.015,0.0291,0.0285,0.0294,0.0313,0.0328,0.0377,0.0456,0.0398,0.0404,0.0419,0.0529,0.0555,0.0564,0.064,0.0615,0.062,0.0623,0.0625,0.074,0.074,0,0,0,0,0,0,0.0119,0.0144,0.0287,0.0295,0.0219,0.0316,0.0333,0.0363,0.0456,0.047,0.0418,0.0422,0.0546,0.0558,0.0569,0.0607,0.062,0.0625,0.0628,0.074,0.074,0.074,0,0,0,0,0,0,0.0114,0.0131,0.0281,0.0221,0.0242,0.0319,0.0352,0.0366,0.0392,0.0471,0.0485,0.0431,0.0547,0.0562,0.0611,0.0613,0.0628,0.0633,0.074,0.074,0.074,0.0682,0,0,0,0,0,0,0.0109,0.0129,0.014,0.0221,0.0245,0.032,0.0353,0.0368,0.0401,0.0407,0.0486,0.05,0.0548,0.0602,0.0616,0.0621,0.0637,0.074,0.074,0.074,0.0684,0.068,0.0677,0,0,0,0,0,0.0101,0.0118,0.014,0.0157,0.0259,0.032,0.0333,0.0388,0.0401,0.0412,0.0463,0.0497,0.061,0.0607,0.0623,0.0629,0.074,0.074,0.074,0.0686,0.0681,0.0677,0,0,0,0,0,0,0.0036,0.013,0.0155,0.0198,0.025,0.0332,0.0348,0.0381,0.0431,0.0434,0.0501,0.0518,0.0561,0.06,0.0594,0.066,0.0679,0.0682,0.0633,0.0629,0.0625,0.0615,0.0641,0,0,0,0,0,0.0026,0.0067,0.0147,0.0178,0.0203,0.0271,0.0299,0.0337,0.0394,0.0416,0.0471,0.0525,0.0573,0.0603,0.0651,0.069,0.0709,0.0703,0.0699,0.0695,0.0697,0.0721,0.0719,0.0739,0.0739,0.0739,0,0,0.0007,0.0064,0.0085,0.0166,0.0211,0.0252,0.0289,0.0331,0.0362,0.0423,0.0472,0.0514,0.0578,0.0622,0.0644,0.0656,0.0695,0.0695,0.0691,0.0695,0.072,0.0718,0.0716,0.0739,0.0739,0.0739,0,0,-0.0007,0.004,0.0071,0.0115,0.0182,0.0227,0.0234,0.0311,0.0341,0.0392,0.0438,0.0476,0.0557,0.0602,0.0635,0.0638,0.0671,0.0651,0.0631,0.0654,0.0652,0.0651,0.0652,0.0652,0.0653,0.0653,0.0653,0,-0.0039,0.0024,0.0082,0.0122,0.0156,0.0212,0.0244,0.0284,0.0364,0.0386,0.0398,0.0501,0.0549,0.0604,0.0604,0.0629,0.064,0.0643,0.0648,0.0647,0.0647,0.0649,0.0649,0.065,0.065,0.0651,0.0651,0,-0.0018,0.0025,0.0042,0.0117,0.0153,0.0188,0.0252,0.0281,0.0316,0.036,0.041,0.0469,0.0531,0.0547,0.0581,0.0607,0.0612,0.0635,0.0656,0.0641,0.0644,0.0645,0.0646,0.0647,0.0648,0.0649,0,0,-0.0069,0.0037,0.0042,0.0077,0.0155,0.019,0.0228,0.0288,0.0312,0.0365,0.0398,0.0465,0.0487,0.0524,0.0564,0.0584,0.0582,0.0605,0.0607,0.0599,0.0615,0.0597,0.0597,0.0605,0.0605,0.0606,0.0609,0,-0.0072,-0.0002,0.0052,0.0102,0.0142,0.0197,0.023,0.0281,0.0323,0.0364,0.0411,0.0458,0.0483,0.0506,0.0527,0.0578,0.0587,0.0578,0.0637,0.0638,0.0619,0.0598,0.058,0.058,0.0611,0.0611,0.0611,0,-0.0065,-0.0015,0.0039,0.0113,0.0133,0.0161,0.022,0.0259,0.0318,0.0348,0.0389,0.043,0.0473,0.0489,0.0549,0.0542,0.057,0.0598,0.0599,0.0607,0.0624,0.0606,0.0582,0.0582,0.0613,0.0613,0.0613,0,-0.0108,-0.0026,0.0017,0.0045,0.0132,0.0151,0.0188,0.0249,0.0281,0.0333,0.0355,0.041,0.0441,0.0484,0.0539,0.0546,0.0593,0.0614,0.0619,0.0617,0.0626,0.0625,0.0607,0.0643,0.0643,0.0643,0.0643,0,-0.0116,-0.0085,-0.0001,0.0025,0.0061,0.0122,0.0157,0.0199,0.0252,0.0288,0.0338,0.0371,0.0441,0.0483,0.0526,0.0569,0.0583,0.0608,0.0619,0.0603,0.06,0.0622,0.0624,0.0644,0.0644,0.0643,0.0643,0,-0.0158,-0.01,-0.005,0.0029,0.0049,0.0072,0.014,0.0168,0.0212,0.0257,0.0271,0.0341,0.0392,0.0452,0.0522,0.0552,0.0591,0.0608,0.0571,0.0577,0.0579,0.0577,0.0574,0.0577,0.0611,0.061,0.061,0,-0.0167,-0.0142,-0.0061,-0.0033,0.0003,0.0046,0.0079,0.014,0.0173,0.0243,0.0262,0.0317,0.0364,0.0443,0.0501,0.0555,0.0574,0.0569,0.0582,0.0566,0.0574,0.0571,0.0574,0.0565,0.0564,0.0564,0.0563,0,-0.0189,-0.0162,-0.0116,-0.006,-0.0022,0.0025,0.0074,0.0094,0.0165,0.0199,0.0252,0.0288,0.036,0.0414,0.0475,0.0514,0.0551,0.0558,0.0562,0.0547,0.0524,0.0536,0.0561,0.0558,0.0559,0.0559,0.0559,0.056,-0.0214,-0.0189,-0.0128,-0.0079,-0.0036,0.0009,0.0039,0.0087,0.0132,0.0195,0.0229,0.028,0.034,0.0426,0.0464,0.0506,0.0518,0.0524,0.0525,0.0526,0.0521,0.0517,0.0517,0.0517,0.0518,0.0518,0.0518,0,-0.0233,-0.0192,-0.0147,-0.008,-0.0041,-0.0011,0.0045,0.0076,0.0121,0.0173,0.0218,0.0279,0.0331,0.0393,0.0449,0.0471,0.0489,0.0484,0.0483,0.0491,0.0507,0.0498,0.0468,0.0468,0.0468,0.0468,0.0468,0.0468,-0.0239,-0.0195,-0.0161,-0.0096,-0.0054,-0.0003,0.0027,0.0068,0.011,0.0175,0.0219,0.0259,0.0315,0.0376,0.0425,0.0442,0.0461,0.045,0.0472,0.0486,0.049,0.0494,0.0486,0.0454,0.0454,0.0453,0.0453,0.0453]},{"header":{"parameterUnit":"m.s-1","parameterCategory":1,"la1":30.2991,"la2":30.254,"lo1":-89.0895,"lo2":-89.0444,"dy":0.0017,"dx":0.0017,"nx":28,"ny":28,"refTime":"2024-03-15T09:00:00:Z","depth":0,"parameterNumber":3,"parameterNumberName":"V-component_of_WINDS"},"data":[0,0,0,0,0,0,0,0,0,0,0,0,0,0,0,0,0,0,0,0,0,0,0,0,0,0,0,0,0,0,0,0,0,0,0,0,0,0,0,0,0,0,0,0,0,0,0,0,0,0,0,0,0,0,0,0,0,0,2.3265,2.3266,0,2.3356,2.3357,2.3358,2.3371,2.337,2.3369,2.3369,2.3457,2.346,2.3463,0,0,0,0,0,0,0,0,0,0,0,0,0,2.31,2.3103,2.3265,2.3266,2.3268,2.3356,2.3357,2.3358,2.3371,2.337,2.3369,2.3368,2.3456,2.346,2.3464,0,0,0,0,0,0,0,0,0,0,0,0,0,2.3179,2.3104,2.3265,2.3285,2.3287,2.3356,2.3357,2.3359,2.3371,2.337,2.3369,2.3368,2.3455,2.346,2.3464,2.3518,0,0,2.3479,2.3481,0,0,0,0,0,0,0,0,2.3174,2.3185,2.3281,2.3283,2.3287,2.3351,2.3331,2.3412,2.3372,2.3339,2.3369,2.3367,2.3423,2.343,2.345,2.3522,2.3526,2.3479,2.3482,2.3484,2.3485,0,0,0,0,0,0,0,2.3169,2.3181,2.3301,2.3282,2.3286,2.3288,2.3298,2.3347,2.3387,2.3342,2.3343,2.3354,2.3424,2.3445,2.3452,2.3527,2.3479,2.3483,2.3486,2.3488,2.3649,2.3651,0,0,0,0,0,0,2.316,2.3176,2.3298,2.3304,2.3226,2.3292,2.3303,2.3332,2.3386,2.3394,2.3355,2.3354,2.3438,2.3446,2.3455,2.3523,2.3484,2.3488,2.3491,2.3648,2.3649,2.3651,0,0,0,0,0,0,2.3157,2.3171,2.3294,2.3241,2.3256,2.3296,2.3328,2.3334,2.3355,2.3396,2.3403,2.3369,2.3437,2.3448,2.3503,2.3526,2.349,2.3495,2.3646,2.3648,2.365,2.3657,0,0,0,0,0,0,2.3152,2.317,2.3191,2.3241,2.3259,2.3342,2.3329,2.3337,2.3364,2.3364,2.3411,2.3418,2.3437,2.3496,2.3507,2.3532,2.3498,2.3644,2.3647,2.365,2.3655,2.3659,2.3663,0,0,0,0,0,2.3146,2.3188,2.3192,2.3207,2.3287,2.3343,2.3354,2.3376,2.3365,2.3387,2.3414,2.3417,2.3521,2.3501,2.3514,2.354,2.3643,2.3646,2.3649,2.3653,2.3659,2.3663,0,0,0,0,0,0,2.3139,2.3195,2.32,2.326,2.3297,2.3345,2.3373,2.338,2.342,2.3418,2.3442,2.3453,2.3506,2.3528,2.3505,2.3595,2.3581,2.3587,2.3579,2.3585,2.3588,2.3582,2.3502,0,0,0,0,0,2.3144,2.3186,2.3233,2.3281,2.33,2.3333,2.3358,2.3373,2.3411,2.3426,2.3456,2.3493,2.3534,2.356,2.36,2.3658,2.3669,2.3682,2.3686,2.3689,2.3695,2.3728,2.3735,2.3662,2.3662,2.3662,0,0,2.3156,2.3192,2.3217,2.3281,2.3311,2.3353,2.3346,2.3391,2.3422,2.3432,2.3487,2.351,2.3552,2.3609,2.3635,2.3629,2.3717,2.3694,2.3696,2.3699,2.3732,2.3739,2.3745,2.3664,2.3664,2.3663,0,0,2.3199,2.3231,2.3275,2.3306,2.3352,2.3375,2.3385,2.3433,2.3449,2.3504,2.3513,2.355,2.362,2.365,2.3674,2.3729,2.3734,2.3741,2.3762,2.3795,2.38,2.3805,2.3826,2.3833,2.3746,2.3746,2.3746,0,2.3208,2.3273,2.3297,2.3342,2.337,2.3383,2.3428,2.3456,2.3512,2.353,2.3523,2.3612,2.3641,2.3705,2.3719,2.3738,2.3751,2.3737,2.3798,2.3803,2.3808,2.3828,2.3836,2.3747,2.3747,2.3747,2.3747,0,2.3281,2.3326,2.3356,2.3413,2.3444,2.3488,2.3518,2.3547,2.3558,2.3581,2.3636,2.3672,2.372,2.3735,2.3746,2.3802,2.3797,2.3793,2.3779,2.3816,2.3835,2.3843,2.3748,2.3748,2.3748,2.3747,0,0,2.3323,2.3393,2.3404,2.343,2.3482,2.3517,2.3561,2.361,2.3634,2.3672,2.3711,2.377,2.3768,2.3795,2.3809,2.3837,2.388,2.383,2.3832,2.3839,2.3944,2.3948,2.3956,2.3883,2.3884,2.3886,2.3941,0,2.3373,2.3456,2.3479,2.3548,2.359,2.3603,2.3642,2.3678,2.37,2.3738,2.3762,2.3805,2.3797,2.3814,2.3843,2.3869,2.3902,2.3865,2.3918,2.392,2.3909,2.3966,2.397,2.4021,2.3949,2.395,2.3951,0,2.3443,2.3485,2.3559,2.3607,2.3626,2.3661,2.3708,2.3744,2.3784,2.3799,2.383,2.3842,2.3888,2.3871,2.3935,2.391,2.3933,2.3949,2.3951,2.3958,2.3939,2.3975,2.4038,2.4046,2.3963,2.3962,2.3961,0,2.3468,2.3542,2.3597,2.3619,2.3675,2.37,2.3724,2.3764,2.3792,2.3832,2.3851,2.3895,2.3919,2.3953,2.3976,2.3961,2.4038,2.4023,2.4051,2.4051,2.4068,2.4067,2.4136,2.4081,2.4081,2.4081,2.408,0,2.3523,2.3568,2.3609,2.3643,2.3693,2.3719,2.3768,2.3792,2.3828,2.3866,2.3878,2.3913,2.3941,2.3979,2.3997,2.4048,2.4059,2.4071,2.4076,2.4071,2.407,2.4087,2.4085,2.4083,2.4082,2.4082,2.4081,0,2.3559,2.3589,2.3649,2.3698,2.3712,2.3747,2.3789,2.3822,2.3844,2.3892,2.3905,2.394,2.3986,2.4012,2.4069,2.4082,2.4139,2.4141,2.4126,2.4128,2.4156,2.4153,2.424,2.4252,2.4187,2.4188,2.4189,0,2.3593,2.3628,2.3682,2.3709,2.3735,2.3778,2.3807,2.3833,2.3862,2.3912,2.3938,2.3986,2.4025,2.4098,2.4128,2.4172,2.4176,2.4203,2.4182,2.4177,2.4177,2.4176,2.418,2.4207,2.4207,2.4208,2.4208,0,2.365,2.3663,2.3705,2.3753,2.3788,2.3826,2.3864,2.3885,2.3917,2.395,2.3998,2.4029,2.4088,2.4135,2.4182,2.4205,2.4212,2.4214,2.4223,2.422,2.421,2.4217,2.4137,2.4212,2.4212,2.4212,2.4211,2.4211,2.3687,2.3719,2.3763,2.381,2.3841,2.3877,2.3911,2.3938,2.3979,2.4031,2.4043,2.4094,2.4134,2.4198,2.4223,2.4262,2.4257,2.427,2.4274,2.4277,2.4278,2.4203,2.427,2.427,2.427,2.427,2.427,0,2.3746,2.3775,2.3818,2.3871,2.3908,2.3913,2.3955,2.3985,2.403,2.4067,2.4107,2.4162,2.4208,2.4241,2.4288,2.4313,2.4317,2.4324,2.4323,2.4329,2.428,2.4268,2.432,2.432,2.432,2.432,2.432,2.432,2.3781,2.3837,2.3855,2.3926,2.3954,2.4006,2.403,2.4062,2.4092,2.4155,2.4193,2.4215,2.4251,2.43,2.4342,2.4351,2.4367,2.4375,2.4384,2.4337,2.4332,2.4327,2.4316,2.4378,2.4378,2.443,2.443,2.4431]}]]